BAW819K EKCH-EGLL

Flight info

Callsign BAW819K
Flight time N/A
Altitude 34000
Route LANGO DCT RAXLU DCT JUIST DCT ABNED L980 LOGAN
Aircraft A320/M-SDE3FGHIRWY/LB1

Departure

Time N/A
Airport Copenhagen Kastrup Airport (EKCH)

Arrival

Time 2026-05-07 15:48
Airport London Heathrow Airport (EGLL)
Time Latitude Longitude Altitude Speed Heading
2026-05-07 15:22 51.77053 1.98636 28713 ft 369 kts 264°
2026-05-07 15:23 51.76815 1.94579 28331 ft 366 kts 264°
2026-05-07 15:23 51.76571 1.90516 27956 ft 362 kts 264°
2026-05-07 15:23 51.76327 1.86486 27578 ft 359 kts 263°
2026-05-07 15:23 51.76081 1.82496 27197 ft 356 kts 263°
2026-05-07 15:24 51.75839 1.78539 26815 ft 353 kts 263°
2026-05-07 15:24 51.75597 1.74605 26438 ft 350 kts 263°
2026-05-07 15:24 51.75353 1.70718 26055 ft 347 kts 263°
2026-05-07 15:24 51.75107 1.66855 25666 ft 345 kts 263°
2026-05-07 15:25 51.74861 1.63019 25273 ft 342 kts 263°
2026-05-07 15:25 51.74619 1.59206 24830 ft 342 kts 263°
2026-05-07 15:25 51.74376 1.55354 24299 ft 347 kts 263°
2026-05-07 15:25 51.74129 1.51471 23779 ft 348 kts 263°
2026-05-07 15:26 51.73879 1.47577 23193 ft 350 kts 263°
2026-05-07 15:26 51.73631 1.43729 22676 ft 349 kts 263°
2026-05-07 15:26 51.73379 1.39845 22158 ft 348 kts 263°
2026-05-07 15:26 51.73128 1.35970 21631 ft 347 kts 263°
2026-05-07 15:27 51.72877 1.32098 21107 ft 347 kts 263°
2026-05-07 15:27 51.72623 1.28228 20588 ft 346 kts 263°
2026-05-07 15:27 51.72367 1.24372 20068 ft 346 kts 263°
2026-05-07 15:27 51.72110 1.20514 19539 ft 346 kts 263°
2026-05-07 15:28 51.71940 1.17961 19209 ft 346 kts 263°
2026-05-07 15:28 51.71682 1.14102 18704 ft 346 kts 263°
2026-05-07 15:28 51.71423 1.10264 18205 ft 344 kts 263°
2026-05-07 15:28 51.71160 1.06422 17636 ft 345 kts 263°
2026-05-07 15:29 51.70893 1.02564 17091 ft 347 kts 263°
2026-05-07 15:29 51.70624 0.98704 16568 ft 346 kts 262°
2026-05-07 15:29 51.70357 0.94856 16045 ft 344 kts 262°
2026-05-07 15:29 51.70092 0.91033 15586 ft 343 kts 262°
2026-05-07 15:30 51.69830 0.87222 15128 ft 341 kts 262°
2026-05-07 15:30 51.69571 0.83428 14687 ft 340 kts 262°
2026-05-07 15:30 51.69224 0.78409 14296 ft 340 kts 262°
2026-05-07 15:30 51.69043 0.75853 14099 ft 339 kts 262°
2026-05-07 15:31 51.68774 0.72074 13805 ft 339 kts 262°
2026-05-07 15:31 51.68508 0.68355 13483 ft 338 kts 262°
2026-05-07 15:31 51.68241 0.64608 13163 ft 336 kts 262°
2026-05-07 15:31 51.67974 0.60881 12845 ft 334 kts 262°
2026-05-07 15:32 51.67707 0.57176 12532 ft 332 kts 262°
2026-05-07 15:32 51.67440 0.53488 12215 ft 330 kts 262°
2026-05-07 15:32 51.67174 0.49826 11903 ft 328 kts 262°
2026-05-07 15:32 51.66907 0.46177 11600 ft 327 kts 262°
2026-05-07 15:33 51.66640 0.42554 11297 ft 326 kts 262°
2026-05-07 15:33 51.66375 0.38938 10995 ft 324 kts 262°
2026-05-07 15:33 51.66112 0.35349 10697 ft 322 kts 262°
2026-05-07 15:33 51.65848 0.31771 10400 ft 320 kts 262°
2026-05-07 15:34 51.65584 0.28246 10108 ft 314 kts 262°
2026-05-07 15:34 51.65321 0.24782 9824 ft 309 kts 262°
2026-05-07 15:34 51.65060 0.21383 9539 ft 303 kts 262°
2026-05-07 15:34 51.64806 0.18045 9283 ft 297 kts 262°
2026-05-07 15:35 51.64557 0.14778 9017 ft 291 kts 262°
2026-05-07 15:35 51.64304 0.11569 8756 ft 286 kts 261°
2026-05-07 15:35 51.64050 0.08417 8538 ft 281 kts 261°
2026-05-07 15:35 51.63802 0.05369 8334 ft 277 kts 261°
2026-05-07 15:36 51.63553 0.02304 8130 ft 276 kts 261°
2026-05-07 15:36 51.63304 -0.00752 7920 ft 275 kts 261°
2026-05-07 15:36 51.63054 -0.03797 7717 ft 274 kts 261°
2026-05-07 15:36 51.62805 -0.06825 7510 ft 273 kts 261°
2026-05-07 15:37 51.62554 -0.09850 7313 ft 272 kts 261°
2026-05-07 15:37 51.62304 -0.12861 7118 ft 271 kts 261°
2026-05-07 15:37 51.62053 -0.15865 6913 ft 271 kts 261°
2026-05-07 15:37 51.61799 -0.18857 6717 ft 270 kts 261°
2026-05-07 15:38 51.61544 -0.21844 6517 ft 269 kts 261°
2026-05-07 15:38 51.61289 -0.24815 6311 ft 268 kts 261°
2026-05-07 15:38 51.61005 -0.27769 6101 ft 266 kts 256°
2026-05-07 15:38 51.60493 -0.30622 5863 ft 265 kts 251°
2026-05-07 15:39 51.59926 -0.33440 5658 ft 264 kts 251°
2026-05-07 15:39 51.59355 -0.36246 5488 ft 263 kts 251°
2026-05-07 15:39 51.58785 -0.39035 5303 ft 263 kts 251°
2026-05-07 15:39 51.58220 -0.41789 5150 ft 262 kts 251°
2026-05-07 15:40 51.57648 -0.44569 5002 ft 262 kts 251°
2026-05-07 15:40 51.57075 -0.47340 4851 ft 261 kts 251°
2026-05-07 15:40 51.56502 -0.50098 4694 ft 258 kts 251°
2026-05-07 15:40 51.55943 -0.52799 4533 ft 251 kts 251°
2026-05-07 15:41 51.55400 -0.55426 4374 ft 244 kts 251°
2026-05-07 15:41 51.54870 -0.57973 4215 ft 237 kts 251°
2026-05-07 15:41 51.54355 -0.60449 4080 ft 230 kts 251°
2026-05-07 15:41 51.53851 -0.62868 3945 ft 228 kts 251°
2026-05-07 15:42 51.53357 -0.65243 3821 ft 220 kts 251°
2026-05-07 15:42 51.52880 -0.67533 3679 ft 213 kts 251°
2026-05-07 15:42 51.52412 -0.69772 3563 ft 210 kts 251°
2026-05-07 15:42 51.51951 -0.71982 3441 ft 207 kts 251°
2026-05-07 15:43 51.51497 -0.74160 3341 ft 203 kts 251°
2026-05-07 15:43 51.51017 -0.76240 3230 ft 195 kts 239°
2026-05-07 15:43 51.50033 -0.77641 3127 ft 191 kts 200°
2026-05-07 15:43 51.48737 -0.77660 3017 ft 190 kts 157°
2026-05-07 15:44 51.47782 -0.76257 2980 ft 192 kts 114°
2026-05-07 15:44 51.47610 -0.74184 2904 ft 193 kts 88°
2026-05-07 15:44 51.47632 -0.72028 2836 ft 193 kts 90°
2026-05-07 15:44 51.47643 -0.69903 2736 ft 189 kts 90°
2026-05-07 15:45 51.47654 -0.67812 2494 ft 186 kts 90°
2026-05-07 15:45 51.47665 -0.65765 2259 ft 182 kts 90°
2026-05-07 15:45 51.47676 -0.63736 2010 ft 181 kts 90°
2026-05-07 15:45 51.47686 -0.61751 1748 ft 173 kts 90°
2026-05-07 15:46 51.47706 -0.58193 1341 ft 146 kts 90°
2026-05-07 15:46 51.47715 -0.56590 1142 ft 142 kts 90°
2026-05-07 15:46 51.47720 -0.55025 930 ft 139 kts 90°
2026-05-07 15:47 51.47726 -0.53491 745 ft 136 kts 89°
2026-05-07 15:47 51.47732 -0.51996 564 ft 133 kts 90°
2026-05-07 15:47 51.47739 -0.50529 390 ft 131 kts 89°
2026-05-07 15:47 51.47747 -0.49084 207 ft 129 kts 89°
2026-05-07 15:48 51.47752 -0.47680 87 ft 120 kts 89°
2026-05-07 15:48 51.47756 -0.46585 93 ft 72 kts 89°
2026-05-07 15:48 51.47759 -0.46027 89 ft 38 kts 89°
2026-05-07 15:48 51.47760 -0.45658 85 ft 29 kts 89°
2026-05-07 15:49 51.47727 -0.45488 89 ft 13 kts 145°
2026-05-07 15:49 51.47661 -0.45470 86 ft 9 kts 180°
2026-05-07 15:49 51.47599 -0.45500 89 ft 10 kts 234°
2026-05-07 15:49 51.47595 -0.45627 89 ft 13 kts 270°
2026-05-07 15:50 51.47595 -0.45784 89 ft 15 kts 270°
2026-05-07 15:50 51.47595 -0.45970 89 ft 18 kts 270°
2026-05-07 15:50 51.47594 -0.46186 87 ft 21 kts 270°
2026-05-07 15:50 51.47593 -0.46432 87 ft 23 kts 269°
2026-05-07 15:51 51.47592 -0.46711 87 ft 26 kts 269°
2026-05-07 15:51 51.47582 -0.47019 91 ft 29 kts 269°
2026-05-07 15:51 51.47581 -0.47324 90 ft 29 kts 270°
2026-05-07 15:51 51.47580 -0.47653 88 ft 28 kts 270°
2026-05-07 15:52 51.47579 -0.47963 90 ft 27 kts 269°
2026-05-07 15:52 51.47578 -0.48209 88 ft 14 kts 269°
2026-05-07 15:52 51.47572 -0.48334 88 ft 11 kts 245°
2026-05-07 15:52 51.47498 -0.48363 87 ft 10 kts 179°
2026-05-07 15:53 51.47437 -0.48362 87 ft 10 kts 179°
2026-05-07 15:53 51.47412 -0.48362 87 ft 0 kts 180°
2026-05-07 15:55 51.47411 -0.48362 87 ft 0 kts 180°
2026-05-07 15:55 51.47407 -0.48362 87 ft 1 kts 180°
2026-05-07 15:55 51.47394 -0.48359 87 ft 3 kts 166°
2026-05-07 15:55 51.47382 -0.48334 87 ft 4 kts 112°
2026-05-07 15:56 51.47380 -0.48278 91 ft 6 kts 88°
2026-05-07 15:56 51.47380 -0.48240 91 ft 2 kts 89°
2026-05-07 15:56 51.47380 -0.48226 89 ft 0 kts 89°